Regional Weather Roundup
Issued by NWS

Home | Current Version | Previous Version | Text Only | Print | Product List | Glossary On
Versions: 1 2 3 4 5 6 7 8 9 10 11 12 13 14 15 16 17 18 19 20 21 22 23 24 25 26 27 28 29 30 31 32 33 34 35 36 37 38 39 40 41 42 43 44 45 46 47 48 49 50
000
ASUS46 KLOX 230211
RWRCA

SOUTHERN CALIFORNIA WEATHER ROUNDUP
NATIONAL WEATHER SERVICE OXNARD CALIFORNIA
700 PM PDT FRI MAY 22 2015

NOTE: "FAIR" INDICATES FEW OR NO CLOUDS BELOW 12,000 FEET WITH NO
SIGNIFICANT WEATHER AND/OR OBSTRUCTIONS TO VISIBILITY.

  -  STATIONS PRECEEDED BY AN ASTERISK (*) ARE NOT NWS OR FAA
     STATIONS AND ARE NOT SUBJECT TO NWS AND FAA QUALITY CONTROL.

CAZ041-042-087-230300-
LA AND ORANGE COUNTY COASTAL AREAS


CITY           SKY/WX    TMP DP  RH WIND       PRES   REMARKS
L.A. DOWNTOWN  CLOUDY    63  52  67 W6        30.02R
L.A. AIRPORT   CLOUDY    61  55  82 SW12      30.04R
LONG BEACH     MOCLDY    65  51  60 NW9       30.02S

CITY           SKY/WX    TMP DP  RH WIND       PRES   REMARKS
AVALON           N/A     61 N/A N/A MISG        N/A
FULLERTON      CLOUDY    64  50  60 S8        30.02R
HAWTHORNE      CLOUDY    63  54  72 SW9       30.03R
*LOS ALAMITOS  MOCLDY    62  55  76 SW10      30.03R
*REDONDO BEACH   N/A     64  55  74 W3        30.04R
SANTA ANA      MOCLDY    63  51  65 W7        30.03S
STA MONICA APT CLOUDY    62  55  77 SW8       30.03R
*STA MON PIER    N/A     60  55  83 W6        30.02S
TORRANCE       MOCLDY    64  55  72 W12       30.04R
*UCLA            N/A     59  52  77 SW6       30.00R

$$

CAZ547-548-048-230300-
LA COUNTY VALLEYS AND INLAND EMPIRE


CITY           SKY/WX    TMP DP  RH WIND       PRES   REMARKS
BURBANK        CLOUDY    62  48  60 SE8       30.02R
VAN NUYS       CLOUDY    62  48  60 SE7       30.01R

CITY           SKY/WX    TMP DP  RH WIND       PRES   REMARKS
CORONA AIRPORT PTCLDY    62  49  62 W7        30.03R
*CHATSWORTH      N/A     62  49  62 NW2       30.02R
CHINO          CLOUDY    63  50  62 SW10      30.04R
MARCH AFB      CLOUDY    58  48  71 N3        30.03R
*NORTHRIDGE      N/A     63  43  48 E2          N/A
ONTARIO        CLOUDY    61  48  62 W6        30.02S
*PASADENA        N/A     63  52  67 CALM        N/A
RIVERSIDE      CLOUDY    62  49  62 W7        30.03R
SAN BERNARDINO DRIZZLE   54  48  82 NE6       30.05R
*WHITEMAN AP   CLOUDY    61  46  59 E6        30.05
*WOODLAND HILL   N/A     63  48  59 S5          N/A

$$

CAZ054-055-230300-
LA AND SAN BERNARDINO COUNTY MOUNTAINS


CITY           SKY/WX    TMP DP  RH WIND       PRES   REMARKS
*BIG BEAR AIRP CLOUDY    37  34  87 SW9       30.05R WCI  31
SANDBERG       MOCLDY    50  45  83 S12       30.04R

$$

CAZ028-029-059-060-099-230300-
ANTELOPE VALLEY AND SURROUNDING AREAS


CITY           SKY/WX    TMP DP  RH WIND       PRES   REMARKS
LANCASTER      CLEAR     58  45  62 SW24      29.97S
PALMDALE       CLEAR     58  45  62 SW22      29.98S

CITY           SKY/WX    TMP DP  RH WIND       PRES   REMARKS
29 PALMS       MOCLDY    69  39  33 W18       29.95R
BARSTOW/DAGGET CLOUDY    68  41  37 SW30      29.89R
BISHOP         PTSUNNY   65  42  43 W12       29.89R
CHINA LAKE     CLOUDY    70  39  32 W15       29.85R
EDWARDS AFB    MOCLDY    63  43  47 SW21G30   29.93R
MOJAVE         FAIR      59  39  47 W22G28    29.94S
NEEDLES        CLOUDY    73  41  31 W14       29.85R
VICTORVILLE    PTCLDY    61  43  51 SW13G22   29.98R

$$

CAZ039-040-230300-
VENTURA AND SANTA BARBARA COUNTY COAST


CITY           SKY/WX    TMP DP  RH WIND       PRES   REMARKS
CAMARILLO      MOCLDY    63  53  70 W10       30.02R
OXNARD AIRPORT CLOUDY    63  53  70 W14       30.02R
*POINT MUGU    MOCLDY    64  53  67 W10       30.03S
SBA APT/GOLETA SUNNY     63  52  67 W14       29.98R
*SANTA BARBARA   N/A     68  50  52 NE5       30.06R
*VENTURA         N/A     62  53  72 SW6       29.62S

$$

CAZ044-045-230300-
VENTURA COUNTY VALLEYS


CITY           SKY/WX    TMP DP  RH WIND       PRES   REMARKS
*SIMI VALLEY     N/A     60  51  74 CALM      30.00R
*OJAI            N/A     64  52  64 CALM      29.95R
*FILLMORE        N/A     65  54  67 CALM      29.90R

$$

CAZ053-230300-
VENTURA COUNTY MOUNTAINS


CITY           SKY/WX    TMP DP  RH WIND       PRES   REMARKS

$$

CAZ034-035-036-230300-
CENTRAL COAST AND SANTA YNEZ VALLEY


CITY           SKY/WX    TMP DP  RH WIND       PRES   REMARKS
SAN LUIS OBISP SUNNY     61  51  70 NW16      30.04R
SANTA MARIA    MOSUNNY   62  52  69 NW17      30.05R

CITY           SKY/WX    TMP DP  RH WIND       PRES   REMARKS
*CAL POLY SLO    N/A     63  52  67 N8          N/A
*PISMO BEACH     N/A     59  55  88 SW14      30.05R
*SANTA YNEZ    FAIR      63  46  55 NW12      30.03R

$$

CAZ037-038-051-230300-
SAN LUIS OBISPO COUNTY INTERIOR AND CUYAMA VALLEY


CITY           SKY/WX    TMP DP  RH WIND       PRES   REMARKS
*CUYAMA          N/A     64  48  57 W12       29.94R
PASO ROBLES    MOSUNNY   66  48  52 S14       29.98R

$$

CAZ032-033-061-230300-
SOUTHERN DESERTS


CITY           SKY/WX    TMP DP  RH WIND       PRES   REMARKS
BLYTHE         PTCLDY    75  42  30 SW18      29.85R
IMPERIAL       CLEAR     71  45  39 W23G32    29.89S
PALM SPRINGS   CLEAR     71  44  37 NW17G28   29.89R
THERMAL        CLEAR     72  44  36 N23       29.85R

$$

ELSEWHERE ACROSS THE WESTERN UNITED STATES AND MEXICO


CITY           SKY/WX    TMP DP  RH WIND       PRES   REMARKS
DENVER, CO     MOCLDY    51  46  83 E7        30.01R
GRAND CANYON,  MOCLDY    39  36  89 W6        30.02S WCI  35
HONOLULU, HI   PTSUNNY   82  64  54 N10       29.94F
KAHULUI, MAUI  MOSUNNY   81  66  61 N12       29.96S
LAKE TAHOE, CA LGT RAIN  49  39  68 S5        30.04R
LAS VEGAS, NV  MOCLDY    68  39  34 W6        29.82R
MAMMOTH LAKES, LGT RAIN  45  39  81 W9        30.03R
MEXICO CITY, M TSTM      57  54  88 S9        30.40S
PHOENIX, AZ    PTCLDY    77  34  21 W22       29.86R
PORTLAND, OR   CLOUDY    60  53  77 CALM      30.05S
RENO, NV       LGT RAIN  55  47  74 NW24G32   29.98R
SALT LAKE CITY CLOUDY    62  40  44 S5        29.87R
SAN DIEGO, CA  MOCLDY    65  50  58 W9        30.07R
SAN FRANCISCO, CLOUDY    59  49  69 W14G21    30.05S
SAN JOSE, CA   PTSUNNY   61  49  64 W12       30.04R
SEATTLE, WA    PTSUNNY   58  50  75 SW8       30.03S
TIJUANA, MEX   MOCLDY    61  48  63 NW12      30.08S

$$

STATION/POSITION TIME  TEMP    WIND        PRES    VSBY  WAVE
                       AIR SEA DIR/SP/G                  HT/PER
                 (UTC) (F)     (DEG/KT/KT) (MB)    (MI)  (FT/S)
POINT ARGUELLO B NOT AVBL
WEST SANTA BARBA 0150   59 58  310/ 16/ 17 1016.6R         4/11
POINT CONCEPTION NOT AVBL
EAST SANTA BARBA 0100   59 58  260/ 21/ 27 1015.8S
SANTA MONICA BAY 0150   61 63  270/ 14/ 16 1016.8R         4/ 6



USA.gov is the U.S. government's official web portal to all federal, state and local government web resources and services.